Weather History for Paris / Charles De Gaulle, France

Change the Weather History Date:

Tuesday, July 9, 2013

  Actual Average Record
Temperature  
Mean Temperature 72 °F -  
Max Temperature 82 °F 74 °F 91 °F (2010)
Min Temperature 62 °F 56 °F 50 °F (1996)
Cooling Degree Days 7    
Growing Degree Days 22 (Base 50)    
Moisture  
Dew Point 60 °F    
Average Humidity 66    
Maximum Humidity 88    
Minimum Humidity 42    
Precipitation  
Precipitation 0.00 in - - ()
Sea Level Pressure  
Sea Level Pressure 30.22 in    
Wind  
Wind Speed 10 mph ()    
Max Wind Speed 15 mph    
Max Gust Speed 25 mph    
Visibility 5.2 miles    
Events      
Averages and records for this station are not official NWS values.
T = Trace of Precipitation, MM = Missing Value Source: Averaged Metar Reports

Daily Weather History Graph

Daily Weather History Graph

Search for Another Location

Airport:

Trip Planner

Search our weather history database for the weather conditions in past years. The results will help you decide how hot, cold, wet, or windy it might be!

Date:

Astronomy

Jul. 09, 2013 Rise Set
Actual Time 5:55 AM CEST 9:53 PM CEST
Civil Twilight 5:14 AM CEST 10:35 PM CEST
Nautical Twilight 4:16 AM CEST 11:32 PM CEST
Astronomical Twilight 2:37 AM CEST 1:08 AM CEST
Moon 7:17 AM CEST (7/9) 10:08 PM CEST (7/9)
Length of Visible Light 17h 21m
Length of Day
15h 57m
New Moon, 1% of the Moon is Illuminated
Jul 9
New Moon
Jul 16
First Quarter
Jul 22
Full
Jul 29
Last Quarter
Aug 6
New

Hourly Weather History & Observations

Time (CEST) Temp. Heat Index Dew Point Humidity Pressure Visibility Wind Dir Wind Speed Gust Speed Precip Events Conditions
12:00 AM 69.8 °F - 57.2 °F 64% 30.30 in - North 8.1 mph - N/A   Clear
12:30 AM 68.0 °F - 59.0 °F 73% 30.30 in - North 8.1 mph - N/A   Clear
1:00 AM 68.0 °F - 59.0 °F 73% 30.30 in - North 10.4 mph - N/A   Clear
1:30 AM 68.0 °F - 59.0 °F 73% 30.30 in - North 9.2 mph - N/A   Clear
2:00 AM 66.2 °F - 60.8 °F 83% 30.27 in - North 9.2 mph - N/A   Clear
2:30 AM 64.4 °F - 60.8 °F 88% 30.27 in - North 8.1 mph - N/A   Clear
3:00 AM 66.2 °F - 60.8 °F 83% 30.27 in 5.6 mi North 10.4 mph - N/A   Unknown
3:30 AM 64.4 °F - 60.8 °F 88% 30.27 in 5.0 mi North 10.4 mph - N/A   Unknown
4:00 AM 64.4 °F - 60.8 °F 88% 30.27 in 4.3 mi North 10.4 mph - N/A   Unknown
4:30 AM 64.4 °F - 60.8 °F 88% 30.24 in 4.3 mi North 10.4 mph - N/A   Unknown
5:00 AM 64.4 °F - 59.0 °F 83% 30.24 in 4.3 mi North 9.2 mph - N/A   Unknown
5:30 AM 62.6 °F - 59.0 °F 88% 30.27 in 4.3 mi North 10.4 mph - N/A   Unknown
6:00 AM 62.6 °F - 59.0 °F 88% 30.24 in 3.7 mi North 10.4 mph - N/A   Unknown
6:30 AM 62.6 °F - 59.0 °F 88% 30.24 in 3.7 mi North 10.4 mph - N/A   Unknown
7:00 AM 62.6 °F - 59.0 °F 88% 30.24 in 3.7 mi North 11.5 mph 25.3 mph N/A   Unknown
7:30 AM 64.4 °F - 59.0 °F 83% 30.24 in 3.7 mi North 10.4 mph - N/A   Unknown
8:00 AM 64.4 °F - 59.0 °F 83% 30.24 in 3.7 mi NNE 11.5 mph - N/A   Unknown
8:30 AM 66.2 °F - 59.0 °F 78% 30.24 in 5.0 mi NNE 10.4 mph 23.0 mph N/A   Unknown
9:00 AM 68.0 °F - 60.8 °F 78% 30.24 in - NNE 10.4 mph - N/A   Clear
9:30 AM 69.8 °F - 60.8 °F 73% 30.24 in - NE 11.5 mph - N/A   Clear
10:00 AM 71.6 °F - 60.8 °F 69% 30.24 in - NE 11.5 mph - N/A   Clear
10:30 AM 71.6 °F - 60.8 °F 69% 30.24 in - NNE 11.5 mph - N/A   Clear
11:00 AM 73.4 °F - 62.6 °F 69% 30.24 in - NNE 12.7 mph - N/A   Clear
11:30 AM 75.2 °F - 62.6 °F 65% 30.24 in - NNE 10.4 mph 23.0 mph N/A   Clear
12:00 PM 75.2 °F - 60.8 °F 61% 30.24 in - NNE 12.7 mph - N/A   Clear
12:30 PM 77.0 °F - 60.8 °F 57% 30.24 in - NNE 11.5 mph - N/A   Clear
12:39 PM 77.0 °F - 60.8 °F 57% 30.24 in 6.2 mi NNE 11.5 mph - N/A   Partly Cloudy
1:00 PM 78.8 °F - 60.8 °F 54% 30.21 in 6.2 mi NNE 10.4 mph - N/A   Partly Cloudy
1:30 PM 78.8 °F - 60.8 °F 54% 30.21 in 6.2 mi NE 12.7 mph - N/A   Partly Cloudy
2:00 PM 80.6 °F 80.5 °F 55.4 °F 42% 30.21 in 6.2 mi NE 12.7 mph - N/A   Partly Cloudy
2:30 PM 80.6 °F 80.8 °F 57.2 °F 45% 30.21 in 6.2 mi NNE 12.7 mph - N/A   Partly Cloudy
3:00 PM 80.6 °F 80.8 °F 57.2 °F 45% 30.18 in - ENE 13.8 mph - N/A   Clear
3:30 PM 82.4 °F 82.5 °F 59.0 °F 45% 30.18 in 6.2 mi NNE 13.8 mph - N/A   Partly Cloudy
4:00 PM 82.4 °F 82.5 °F 59.0 °F 45% 30.18 in 6.2 mi NE 13.8 mph - N/A   Partly Cloudy
4:30 PM 80.6 °F 81.1 °F 59.0 °F 48% 30.18 in 6.2 mi NE 13.8 mph - N/A   Partly Cloudy
5:00 PM 80.6 °F 81.1 °F 59.0 °F 48% 30.18 in 6.2 mi NNE 15.0 mph - N/A   Partly Cloudy
5:30 PM 80.6 °F 81.1 °F 59.0 °F 48% 30.15 in - NE 12.7 mph - N/A   Clear
6:00 PM 80.6 °F 81.1 °F 59.0 °F 48% 30.15 in - NE 13.8 mph - N/A   Clear
6:30 PM 80.6 °F 81.5 °F 60.8 °F 51% 30.15 in - NE 12.7 mph - N/A   Clear
7:00 PM 80.6 °F 81.8 °F 62.6 °F 54% 30.15 in - NNE 13.8 mph - N/A   Clear
7:30 PM 78.8 °F - 60.8 °F 54% 30.15 in 6.2 mi NNE 12.7 mph - N/A   Partly Cloudy
8:00 PM 78.8 °F - 62.6 °F 57% 30.15 in 6.2 mi NNE 12.7 mph 25.3 mph N/A   Partly Cloudy
8:30 PM 77.0 °F - 60.8 °F 57% 30.15 in - NNE 11.5 mph - N/A   Clear
9:00 PM 77.0 °F - 62.6 °F 61% 30.15 in - Variable 9.2 mph - N/A   Clear
9:30 PM 75.2 °F - 60.8 °F 61% 30.15 in - NNE 9.2 mph - N/A   Clear
10:00 PM 73.4 °F - 59.0 °F 61% 30.15 in - NNE 8.1 mph - N/A   Clear
10:30 PM 73.4 °F - 60.8 °F 65% 30.15 in - North 8.1 mph - N/A   Clear
11:00 PM 71.6 °F - 59.0 °F 64% 30.15 in - North 11.5 mph - N/A   Clear
11:30 PM 69.8 °F - 59.0 °F 68% 30.15 in - NNE 11.5 mph - N/A   Clear